Vertical_Velocity
-2 -4 -1 -1 0 -1 -2 -1 -0 -2 -2 2 -1 -1 -5 -3 1 -0 -3 -1 -3 -3 -3 1 -3 -4 -3 -0 -5 -1 -7 -1 -5 -3 -7 -2 -7 -2 1 4 -3 5 -13 12
-4 -1 0 -1 -1 -1 -0 -0 -3 -3 -0 5 -1 -7 -3 -0 -2 -2 0 -1 -2 -4 -6 -5 -5 -2 -1 -5 -5 -4 -3 -3 -1 -3 -1 -3 -2 -3 -4 4 2 -5 9 13
-2 2 -1 -2 0 -0 0 -1 -0 -1 -2 0 1 -4 -3 -3 -0 -1 -2 -3 -2 -2 -6 -6 -6 -3 -2 -2 -6 -6 -4 -3 -2 -2 -3 -1 -1 -5 -5 6 0 -4 -8 -4
1 1 -0 0 0 -1 1 -1 -0 0 -1 -2 -5 -9 -3 -1 -3 -0 -4 -2 -4 -1 -2 -2 -4 -3 -2 -2 -4 -2 -1 -2 -3 -2 -1 1 -2 -7 -2 0 6 3 -1 -1
-0 0 0 1 -1 -1 -1 0 0 -0 -0 -2 -3 -6 -15 -1 -3 -4 -4 -2 -2 0 -1 -6 -2 -1 -2 0 -2 -2 -0 -2 -3 -2 1 -0 -2 -3 -6 -3 3 1 7 3
1 0 -1 -2 0 -0 1 -0 -1 -1 -1 -5 -1 -6 -10 -3 -7 -2 -2 -2 -2 -1 -1 -1 0 0 -2 -1 -2 -2 -4 -2 -2 0 1 2 1 -2 -7 -5 -2 -1 3 7
0 1 0 -1 -1 1 -5 -3 -4 -9 -7 -6 -0 -3 -16 -3 -2 -3 -2 -4 -2 -0 -0 -4 -3 -4 -4 -4 -2 -4 0 -3 -1 -1 -0 1 3 -1 -1 -8 5 -0 3 7
-0 -4 -2 -2 -3 -5 -1 -5 -6 -3 -2 -3 -2 -5 -22 -4 -1 -1 -2 -1 -4 -4 2 -1 -1 -0 -2 -3 -1 -1 -1 -4 0 0 -0 1 2 -1 1 -1 -9 10 -2 9
-2 -2 2 0 0 -5 -4 -5 -7 -5 -0 -2 -4 -12 -9 -1 -2 -1 -2 -1 -3 -2 -1 -1 -3 0 -3 -1 -1 -0 -4 -1 -0 0 -0 1 2 2 1 -4 -1 1 5 4
-1 -4 0 1 -1 -1 -6 -5 -12 -5 -4 -3 -5 -2 -8 -3 -3 -1 -2 -2 -2 -1 -1 -1 0 -1 -2 0 -0 -0 0 -2 -2 -1 2 1 2 3 2 -4 -2 4 -3 -2
-2 -3 -2 -2 -3 -5 -4 -2 -5 -7 -2 -4 -2 -12 -8 -4 -2 -2 -2 -1 -1 -1 -2 -2 -1 1 -3 0 1 -2 1 -4 -3 -2 4 1 3 6 2 -2 -2 1 5 3
-0 -3 -1 -4 -1 -1 -1 -3 -4 -6 -7 -1 -3 -24 -1 -2 -1 1 -4 -3 -1 2 -2 -1 -2 0 -3 -3 1 -1 -2 -4 -0 1 1 1 3 6 2 -1 -1 5 3 0
-2 -2 -2 -3 -2 0 1 -0 -1 -1 -3 -3 -5 -17 -1 -0 -0 -2 -3 -2 1 -0 0 -1 -0 1 -3 -4 -2 -0 -2 -2 -4 2 0 2 5 1 2 -1 0 6 2 6
1 0 -1 -5 -6 -3 1 1 0 -4 -2 -3 -8 -7 -8 -2 -1 -3 -1 2 -1 0 -1 -1 0 -1 -3 -2 -2 -2 -0 0 -4 -0 -1 1 3 3 4 1 1 8 2 8
-2 0 2 -3 -2 3 -1 -1 0 1 -5 -4 -6 -2 -7 -3 -1 -3 -2 -2 -1 -1 1 -1 1 -2 -2 -3 1 1 1 -1 -2 -4 1 0 1 6 6 2 1 9 3 5
1 -4 0 -4 -1 2 1 -1 0 -0 0 0 2 -13 -1 -9 1 -2 -2 -0 -1 -1 1 0 1 -1 -3 -4 -1 -1 -2 -2 -0 2 -2 0 4 5 3 2 2 8 4 -1
-1 -1 -1 -6 0 -0 2 -7 -3 -1 -0 -7 -5 -22 -0 -2 -0 -2 -2 1 -2 -1 -1 1 1 -0 -3 -3 -3 1 -1 -1 2 1 2 0 3 3 0 1 8 0 -1 3
-1 -0 -1 -2 -2 -2 -7 -0 -4 -6 -2 0 1 -2 -2 -4 -4 -2 2 -1 -2 -1 -2 -1 1 1 -1 -3 -3 1 3 1 -0 -0 -1 0 2 4 -1 -0 -1 -2 -2 1
-1 -2 -1 1 -0 -10 0 -0 -4 -6 -9 -5 -4 -3 -4 1 -1 -7 -1 -2 -2 -1 -0 -1 -1 0 0 -2 -3 -5 1 3 2 -2 -3 -2 -0 3 2 -2 -5 -5 1 3
-0 -1 -2 1 2 -1 -5 -0 -0 -1 -6 -0 -2 -2 -0 1 -2 -7 -2 -2 -2 -2 0 0 -2 -1 0 1 -2 -3 -4 -2 2 -2 -1 -0 -1 1 0 4 -1 -2 -1 -2
1 0 -2 -1 -0 -12 -4 -1 -0 -4 -3 -0 -3 -2 1 -3 -8 2 -1 -2 -1 -2 0 2 -1 -1 -1 -1 1 -1 -3 -3 -2 3 2 1 -1 -1 0 -0 -2 2 7 2
-7 -4 -1 2 2 -12 -1 -1 -4 -6 -1 -0 -0 -1 -1 -0 2 3 3 -1 -2 -3 -1 1 1 1 0 -1 -1 -1 -1 -0 -4 -2 -0 1 1 -2 -1 -1 1 -1 -1 -4
-8 -12 -11 -13 -20 -1 -4 -1 2 2 2 -4 3 3 3 -1 -2 4 3 1 -1 -2 -2 -1 -0 3 1 -1 0 -1 -1 -1 -0 -2 -3 -1 1 0 -3 -3 -2 -1 -2 -1
-3 0 -0 -3 -6 -6 -2 -5 -2 1 1 1 3 0 0 -2 2 -1 2 0 1 1 -2 -2 -2 -2 1 1 1 1 0 -2 -2 0 -2 -3 -3 0 1 -1 -2 -2 -2 -1
-9 -2 -3 -6 -4 -2 -8 8 -4 2 7 -3 -2 3 1 -1 0 -1 -1 1 1 1 1 -1 -2 -2 -1 0 1 1 0 -0 0 -2 -1 0 -3 -4 -1 -0 -3 -3 -2 0
-5 -7 0 -14 -6 5 -6 -2 -7 -4 -4 0 -5 -3 1 -0 -1 -0 -1 -0 0 1 2 1 0 -2 -1 -1 -0 2 2 1 -1 -2 -2 -0 0 -0 -3 -2 0 1 -1 -1
Height
1497 1499 1504 1514 1512 1522 1530 1535 1535 1518 1517 1519 1510 1505 1496 1493 1492 1491 1490 1490 1489 1489 1488 1485 1482 1478 1474 1470 1465 1460 1454 1449 1445 1440 1437 1432 1430 1429 1428 1429 1434 1435 1440 1445
1502 1506 1508 1509 1512 1517 1524 1532 1524 1515 1517 1518 1514 1497 1491 1488 1486 1486 1485 1485 1485 1484 1483 1481 1478 1474 1470 1466 1461 1455 1450 1444 1439 1434 1430 1427 1422 1420 1419 1420 1425 1426 1429 1431
1504 1509 1508 1509 1516 1515 1523 1532 1522 1525 1519 1516 1516 1498 1493 1487 1486 1483 1482 1481 1481 1481 1479 1476 1473 1469 1465 1461 1456 1451 1445 1439 1433 1429 1424 1420 1417 1413 1412 1412 1414 1418 1423 1428
1508 1509 1510 1513 1514 1517 1516 1519 1521 1524 1530 1525 1523 1507 1497 1495 1488 1482 1477 1477 1475 1478 1477 1473 1468 1464 1460 1456 1452 1447 1441 1435 1429 1424 1419 1414 1410 1406 1406 1404 1404 1409 1415 1418
1510 1511 1513 1514 1514 1517 1517 1520 1522 1526 1537 1538 1522 1531 1494 1498 1491 1479 1472 1471 1472 1475 1473 1469 1464 1460 1456 1452 1447 1442 1436 1430 1424 1419 1414 1408 1404 1402 1399 1396 1395 1399 1404 1409
1512 1513 1515 1517 1516 1517 1521 1523 1524 1532 1547 1544 1522 1527 1494 1496 1486 1481 1470 1469 1470 1471 1468 1465 1460 1456 1451 1447 1442 1436 1430 1425 1419 1414 1408 1402 1397 1395 1394 1392 1390 1390 1393 1397
1509 1514 1517 1516 1516 1519 1525 1531 1536 1526 1539 1515 1527 1532 1488 1481 1474 1472 1468 1466 1467 1466 1464 1460 1455 1451 1447 1442 1437 1432 1426 1419 1414 1408 1401 1396 1391 1389 1387 1386 1383 1384 1388 1393
1519 1504 1523 1520 1522 1525 1536 1538 1524 1513 1533 1521 1529 1528 1477 1471 1467 1465 1464 1462 1462 1462 1460 1456 1452 1447 1442 1438 1433 1428 1421 1414 1409 1402 1395 1390 1386 1383 1382 1384 1383 1377 1380 1383
1526 1511 1522 1522 1522 1526 1530 1540 1544 1555 1581 1553 1549 1515 1478 1466 1463 1460 1458 1458 1458 1458 1456 1453 1449 1444 1439 1435 1430 1424 1417 1411 1405 1398 1391 1386 1382 1378 1377 1378 1375 1372 1374 1377
1527 1523 1521 1523 1524 1529 1531 1540 1535 1551 1528 1534 1532 1547 1486 1471 1463 1458 1457 1455 1455 1454 1451 1449 1446 1441 1437 1432 1427 1422 1416 1409 1402 1396 1389 1383 1377 1374 1373 1373 1371 1368 1371 1375
1525 1527 1521 1523 1530 1528 1538 1541 1554 1554 1562 1545 1555 1489 1470 1463 1459 1457 1454 1451 1451 1449 1447 1445 1443 1438 1434 1429 1425 1420 1414 1407 1400 1393 1386 1380 1374 1371 1369 1369 1368 1366 1370 1374
1519 1526 1522 1515 1531 1532 1533 1531 1535 1526 1547 1591 1575 1497 1456 1456 1456 1456 1451 1448 1446 1444 1443 1441 1440 1436 1431 1427 1423 1418 1413 1406 1400 1393 1386 1378 1372 1369 1366 1365 1364 1364 1365 1369
1517 1519 1512 1503 1527 1528 1526 1533 1539 1544 1546 1563 1537 1475 1457 1456 1454 1451 1449 1444 1442 1440 1439 1439 1437 1434 1430 1426 1422 1417 1412 1406 1399 1393 1386 1378 1372 1367 1364 1363 1361 1361 1362 1363
1512 1513 1504 1492 1488 1504 1516 1519 1529 1522 1533 1533 1511 1477 1446 1452 1453 1445 1443 1441 1439 1437 1436 1436 1435 1432 1428 1425 1422 1417 1412 1407 1400 1393 1387 1380 1373 1368 1364 1362 1359 1357 1356 1359
1510 1516 1508 1496 1492 1493 1488 1491 1512 1512 1500 1484 1481 1489 1451 1452 1448 1443 1441 1438 1436 1434 1433 1433 1432 1430 1427 1424 1421 1417 1413 1408 1402 1396 1389 1382 1375 1370 1365 1362 1359 1357 1355 1354
1507 1513 1507 1492 1476 1480 1481 1474 1482 1493 1502 1490 1478 1467 1445 1440 1441 1439 1437 1435 1433 1432 1431 1431 1430 1429 1427 1423 1419 1416 1412 1408 1404 1398 1390 1385 1378 1371 1366 1363 1360 1356 1354 1354
1506 1508 1507 1492 1479 1476 1467 1453 1458 1475 1475 1467 1477 1446 1441 1439 1438 1436 1432 1432 1429 1429 1429 1428 1428 1427 1425 1422 1418 1415 1412 1408 1404 1399 1393 1385 1380 1374 1368 1364 1360 1357 1357 1360
1500 1503 1506 1502 1487 1468 1436 1442 1443 1449 1450 1454 1446 1439 1436 1433 1432 1430 1428 1427 1427 1426 1426 1426 1425 1424 1423 1421 1418 1415 1412 1408 1404 1399 1393 1387 1381 1376 1373 1368 1362 1362 1363 1362
1491 1497 1497 1500 1507 1459 1430 1444 1445 1447 1430 1431 1437 1432 1428 1430 1431 1425 1424 1424 1424 1424 1424 1424 1423 1422 1421 1420 1418 1414 1411 1408 1404 1400 1395 1390 1385 1380 1376 1372 1369 1369 1367 1365
1492 1494 1495 1503 1491 1461 1432 1437 1438 1441 1431 1423 1429 1426 1426 1429 1437 1425 1421 1421 1421 1421 1420 1420 1420 1419 1419 1418 1416 1414 1411 1407 1404 1400 1397 1393 1389 1384 1379 1377 1376 1374 1371 1371
1497 1501 1492 1491 1480 1463 1432 1435 1438 1434 1428 1422 1423 1423 1424 1427 1421 1418 1418 1418 1418 1418 1417 1417 1417 1417 1416 1416 1415 1413 1411 1408 1404 1401 1398 1395 1392 1388 1384 1382 1381 1378 1376 1373
1485 1486 1490 1485 1486 1466 1430 1437 1435 1422 1422 1424 1423 1421 1420 1418 1416 1416 1415 1414 1414 1414 1414 1413 1413 1414 1414 1414 1413 1412 1410 1408 1405 1402 1399 1396 1394 1391 1388 1386 1384 1381 1378 1375
1475 1455 1458 1460 1443 1426 1425 1423 1420 1420 1420 1421 1420 1418 1415 1413 1410 1410 1410 1410 1410 1410 1410 1410 1410 1410 1411 1411 1411 1410 1409 1408 1405 1403 1400 1397 1395 1393 1391 1388 1385 1383 1381 1378
1452 1443 1443 1446 1422 1420 1421 1421 1421 1419 1418 1416 1414 1413 1412 1408 1406 1403 1404 1406 1406 1405 1405 1406 1406 1406 1407 1408 1408 1408 1407 1406 1405 1403 1401 1398 1397 1394 1393 1392 1389 1387 1384 1382
1442 1440 1439 1430 1419 1416 1416 1416 1416 1416 1414 1414 1413 1411 1408 1405 1402 1401 1399 1400 1401 1400 1401 1401 1402 1402 1404 1405 1405 1405 1405 1404 1403 1402 1401 1400 1398 1397 1395 1393 1392 1391 1389 1388
1431 1427 1427 1412 1413 1414 1413 1414 1412 1412 1411 1410 1407 1406 1404 1401 1399 1397 1396 1397 1396 1396 1397 1397 1398 1398 1400 1401 1402 1403 1403 1402 1402 1401 1401 1400 1399 1398 1397 1395 1394 1393 1392 1392